CZ-2D DEB (43490 NORAD) Tracking and Keplerian Element Data

This shows tracking and keplerian element data for the satellite.

Feedback or suggestion? Click here.




ElementValue
Catalog43490
NameCZ-2D DEB
Epoch Orbit399
Epoch Day182.18828137
Epoch Year2018
RAAN257.4973
Inclination98.1779
Eccentricity0.0035979
Argument of Perigee158.8952
Mean Anonmoly201.3751
Mean Motion14.74957008
Decay Rate1.65E-06
L11 43490U 18048E 18182.18828137 .00000165 00000-0 32337-4 0 9993
L22 43490 98.1779 257.4973 0035979 158.8952 201.3751 14.74957008 3996

Live tracking and technical data element details for CZ-2D DEB (NORAD 43490). CZ-2D DEB can be tracked NOW for your location showing map with azimuth and elevation plus other details from your city location.

Track the satellite on the map from your city or location and see movement details for azimuth, elevation, latitude, longitude, range, height, and movement on the map or in text.







IsCatalogInMostPopularTable: catalog: 43490, numindb: 7
Update: records affected: 1



GetName: 43490 CZ-2D DEB

Hit Count: updated at: Sun, 15 Jul 2018 22:59:45 GMT